SCP
0 0 0 0 0 0 0 0 0 0 0 0 0 0 0 0 0 0 0 0 0 0 0 0 0 0 0 0 0 -0 0 0 -0 0 0 0 0 0 0 0 0 0 0 0 0
0 0 0 0 0 0 0 0 0 0 0 0 0 0 0 0 -0 0 0 0 0 0 0 0 0 0 0 0 0 0 0 0 -0 -0 0 0 0 0 -0 0 0 0 0 0 0
0 0 0 0 0 0 0 0 0 0 0 0 0 0 0 0 0 0 0 0 0 0 0 0 0 0 0 0 0 0 0 0 0 0 0 0 0 0 0 0 0 0 0 0 0
0 0 0 0 0 0 0 0 0 0 0 0 0 0 0 0 0 0 0 0 0 0 0 0 0 0 0 0 0 0 0 0 -0 0 0 0 0 -0 0 0 0 0 0 0 0
0 0 0 0 0 0 0 0 0 0 0 0 0 0 0 0 0 0 0 0 0 0 0 0 0 0 0 0 0 0 -0 -0 -0 0 0 0 0 0 0 0 0 0 0 0 0
0 0 0 0 0 0 0 0 0 0 0 0 0 0 0 0 0 0 0 0 0 0 0 0 0 0 0 0 0 0 -0 0 -0 -0 0 0 0 0 0 0 0 0 0 0 0
0 0 0 0 0 0 0 0 0 0 0 0 0 0 0 0 0 0 0 0 0 0 0 0 0 0 0 -0 -0 -0 -0 -0 -0 0 0 -0 0 0 0 0 0 0 0 0 0
0 0 0 0 0 0 0 0 0 0 0 0 0 0 0 0 -0 0 0 0 0 0 0 0 0 -0 0 0 -0 -0 -0 -0 -0 -0 0 0 0 0 -0 0 0 0 0 0 0
0 0 0 0 0 0 0 0 0 0 0 0 0 0 -0 -0 -0 0 0 0 0 0 0 0 0 -0 0 -0 -0 -0 0 -0 -0 -0 0 0 0 0 0 -0 0 0 0 0 0
0 0 0 0 0 0 0 0 0 0 0 0 0 0 0 0 0 0 0 0 0 0 0 0 0 0 0 0 0 0 -0 -0 -0 0 0 0 0 0 0 0 0 0 0 0 0
0 0 0 0 0 0 0 0 0 0 0 0 0 0 0 -0 -0 0 0 0 0 0 0 0 0 0 -0 -0 -0 0 0 -0 -0 0 -0 0 0 0 0 0 -0 0 0 0 0
-0 -0 -0 -0 0 0 0 0 0 0 0 0 0 0 0 0 0 0 0 0 0 0 0 0 0 -0 -0 -0 -0 0 0 -0 -0 0 0 0 0 0 0 0 0 0 0 0 0
-0 -0 -0 -0 -0 -0 0 0 0 0 0 0 0 0 0 0 0 0 0 0 0 0 0 0 -0 -0 -0 0 -0 0 -0 -0 -0 0 -0 0 0 0 0 0 0 0 0 0 0
0 0 -0 -0 -0 -0 0 0 0 0 0 0 -0 0 0 0 -0 -0 0 0 0 0 0 0 0 0 0 -0 0 0 -0 -0 -0 -0 -0 0 -0 0 0 -0 0 0 0 0 0
0 0 -0 0 -0 0 0 0 0 0 0 0 -0 0 0 0 0 0 0 0 0 0 0 -0 0 -0 -0 0 0 0 -0 -0 0 0 -0 -0 -0 0 -0 -0 0 0 0 0 0
0 0 0 0 0 0 0 0 0 0 0 0 0 0 0 0 0 0 0 0 0 0 0 -0 0 -0 0 0 -0 0 0 -0 0 -0 -0 0 0 0 -0 0 0 0 0 0 0
0 0 0 0 0 0 0 0 0 0 0 0 0 0 0 0 0 0 0 0 0 0 -0 0 -0 -0 0 -0 0 -0 -0 0 0 -0 -0 -0 0 -0 0 0 0 0 0 0 0
0 0 0 0 0 0 0 0 0 0 0 0 0 0 0 0 0 0 0 0 0 0 0 0 0 -0 -0 -0 -0 0 0 0 -0 -0 -0 0 -0 -0 0 0 0 0 0 0 0
0 0 0 0 0 0 0 0 0 0 0 0 0 0 0 0 0 0 0 0 0 0 0 0 -0 0 0 -0 -0 0 0 -0 -0 0 0 0 0 -0 0 0 0 0 0 0 0
0 0 0 0 -0 0 0 0 0 0 0 0 0 0 0 0 0 0 0 0 0 0 0 0 0 0 -0 -0 0 0 0 0 0 -0 0 0 -0 0 0 0 0 0 0 0 -0
0 0 -0 0 0 0 0 0 0 0 0 0 0 0 0 0 0 0 0 0 0 0 0 0 0 0 0 0 0 0 0 0 0 0 0 -0 0 0 0 0 0 0 0 -0 -0
0 0 -0 0 0 0 0 0 0 0 0 0 0 0 0 0 0 0 0 0 0 0 0 -0 0 0 0 0 0 0 0 0 0 0 -0 -0 0 0 0 0 0 0 0 -0 -0
0 0 0 0 0 0 0 0 -0 0 0 0 0 0 0 0 0 0 0 0 0 0 0 0 0 0 0 0 0 0 0 0 0 0 0 -0 -0 0 0 0 0 0 0 -0 -0
0 0 0 0 0 0 0 0 0 0 0 0 0 0 0 0 0 0 0 0 0 0 0 0 0 0 0 0 0 0 0 0 0 0 0 -0 -0 0 0 0 0 0 0 -0 -0
0 0 0 0 0 0 0 0 0 -0 0 0 0 0 0 0 0 0 0 -0 0 0 0 0 0 0 0 0 0 0 0 0 0 -0 0 0 -0 0 0 0 0 0 0 -0 -0
0 0 0 0 0 -0 0 0 0 -0 0 0 0 0 0 0 0 0 0 0 0 0 0 1 0 0 0 0 0 0 0 0 0 0 0 0 -0 0 0 0 0 0 0 -0 -0
-0 -0 0 -0 0 0 -0 0 0 0 -0 0 0 0 0 0 0 0 0 0 0 0 0 0 0 0 0 0 0 0 0 0 0 0 0 0 0 0 0 0 0 0 0 -0 -0
Wind_Speed_500mb
46 46 47 48 49 48 47 46 43 41 39 38 37 37 38 43 40 39 50 39 34 36 30 31 37 37 40 44 45 42 29 30 41 41 28 34 25 26 20 13 25 10 10 10 15
49 49 49 51 53 51 48 49 46 45 43 42 41 41 41 42 50 57 55 43 38 38 51 44 48 45 52 49 51 40 29 42 42 38 31 37 32 44 39 19 16 26 23 22 22
51 51 51 53 55 57 54 53 50 48 46 44 44 43 42 40 44 37 30 42 55 53 49 47 48 48 54 52 56 47 38 38 47 49 33 45 34 45 23 18 19 13 5 28 26
47 50 49 51 52 56 59 57 56 53 49 45 44 45 40 28 15 7 13 12 23 46 48 55 61 62 53 46 59 48 60 58 47 47 45 38 35 36 24 22 25 4 8 22 29
46 48 48 47 50 52 53 55 56 55 53 47 45 44 40 29 51 35 50 39 17 46 57 64 71 71 53 52 54 53 49 56 47 43 60 51 39 30 34 22 16 15 14 23 24
49 48 49 48 49 50 53 51 50 50 49 47 47 43 34 41 63 51 52 47 31 35 52 58 66 73 64 58 52 57 60 45 52 65 48 43 35 31 39 27 21 23 27 24 27
48 49 49 50 50 47 46 52 50 47 45 43 43 42 43 72 36 22 31 48 40 38 41 50 60 67 59 55 66 61 49 45 49 39 38 49 36 31 43 32 42 26 24 34 28
47 48 48 48 46 49 46 49 51 46 43 38 36 34 39 60 59 68 41 43 51 54 44 38 43 61 65 60 56 43 52 41 43 46 56 40 34 26 47 38 28 33 36 37 35
41 42 45 48 51 55 55 49 46 38 43 36 34 33 41 30 53 66 56 58 44 42 43 49 49 53 50 42 38 39 35 49 45 42 41 37 36 33 40 42 33 31 32 31 32
38 40 42 43 50 56 59 52 29 34 37 23 33 25 47 52 47 50 56 64 66 51 52 48 51 38 35 33 39 42 46 41 42 41 22 29 32 34 45 39 40 36 35 35 33
40 41 40 42 46 44 47 33 17 15 42 46 35 51 43 18 31 46 44 53 63 60 43 52 36 45 53 53 52 49 49 43 39 40 25 18 44 34 27 40 46 37 35 34 30
43 42 38 36 44 44 37 23 35 24 29 61 82 75 64 44 30 39 42 53 59 54 47 41 48 50 52 50 54 55 50 45 41 29 22 25 27 24 31 42 48 36 30 29 29
44 44 39 37 42 41 35 50 41 35 27 58 75 90 84 69 69 51 60 61 48 55 53 57 53 54 56 52 55 52 49 40 41 31 32 17 28 35 36 42 32 23 22 9 37
45 39 37 33 27 23 37 25 23 19 15 31 58 67 91 75 81 78 61 60 48 58 62 61 53 56 57 57 50 48 50 46 39 31 24 27 26 27 30 34 15 17 34 38 43
44 39 33 28 26 25 22 13 4 9 14 17 68 36 61 88 23 86 88 74 54 53 45 62 60 59 59 57 57 48 50 45 35 29 30 31 24 27 30 32 18 10 5 31 41
42 38 33 29 32 33 28 25 10 14 28 19 20 52 50 70 80 15 98 85 73 52 56 58 64 56 65 51 52 51 46 41 27 26 27 33 28 28 29 6 14 4 13 34 37
42 37 37 30 37 18 14 18 15 27 24 27 36 49 48 53 63 63 63 63 56 55 56 52 62 60 57 61 48 50 38 23 23 25 24 33 31 31 27 12 4 10 7 24 32
35 38 38 37 31 24 17 12 30 42 69 19 41 47 52 47 58 67 54 54 62 63 30 46 45 66 55 60 51 51 35 25 31 24 32 21 30 14 5 14 12 4 13 16 26
34 33 36 36 32 29 18 25 44 58 29 54 63 58 47 50 44 62 69 61 64 66 49 45 58 45 64 55 51 45 33 41 36 32 26 9 27 20 24 18 15 18 16 25 29
28 26 38 29 34 34 15 28 47 60 73 67 51 39 41 42 54 61 62 62 64 66 51 48 34 56 62 51 56 46 39 35 23 35 33 28 29 12 25 18 21 21 22 28 39
19 9 26 36 39 22 14 32 45 64 76 56 54 52 53 50 42 57 63 56 65 65 62 49 36 39 47 59 45 37 40 39 27 31 25 23 22 11 29 20 18 23 35 37 48
13 5 8 41 15 9 18 39 48 51 76 55 47 40 53 49 41 36 55 61 49 62 69 65 21 33 53 52 52 47 47 36 21 35 24 24 13 18 14 16 15 34 41 42 45
11 18 9 22 10 20 35 46 50 46 47 52 45 42 46 54 27 30 44 49 72 60 60 50 40 27 39 42 52 49 43 41 31 17 30 24 22 24 22 16 22 16 47 49 45
9 6 13 18 27 27 35 36 39 34 45 45 46 40 43 42 42 32 45 34 44 62 74 45 39 47 31 37 42 50 50 46 40 25 28 31 26 28 28 22 19 22 43 50 46
11 8 12 6 15 21 28 35 44 43 50 44 34 44 43 41 41 37 40 36 49 43 42 44 54 45 51 47 53 55 55 51 48 42 37 35 35 22 28 21 24 33 33 41 48
15 11 16 26 25 23 25 25 39 39 43 36 38 43 34 42 42 30 39 38 23 37 24 41 45 49 49 57 53 52 57 53 53 50 44 42 36 28 22 43 37 28 40 37 44
23 21 12 17 19 17 17 27 24 31 44 36 28 31 39 41 44 37 57 59 53 47 45 29 35 41 47 46 51 49 54 51 43 42 45 41 33 25 17 17 17 34 40 38 40
Wind_Direction_500mb
289 289 288 288 287 288 287 287 289 288 291 288 289 290 291 293 285 284 260 253 236 236 226 218 210 220 222 233 238 245 256 265 276 289 311 316 329 324 291 257 275 190 196 172 166
283 282 284 284 284 284 283 284 285 287 289 291 291 292 293 296 294 281 265 242 222 237 231 210 213 220 229 233 244 241 250 264 275 292 317 324 310 307 299 283 270 191 187 185 180
282 281 280 279 280 283 282 281 282 282 283 287 289 290 293 303 313 282 250 244 244 234 230 223 228 221 231 236 239 241 252 253 277 290 301 297 299 278 293 292 303 7 322 182 191
280 280 277 276 276 277 279 279 280 280 281 280 283 283 284 288 254 249 326 282 226 228 222 225 230 230 227 236 244 252 253 254 263 284 284 275 279 285 294 287 292 310 247 199 205
294 286 284 280 272 272 272 275 276 277 279 282 280 280 280 249 242 245 295 288 249 221 219 220 223 228 238 235 243 257 261 256 270 276 266 266 268 280 278 296 293 270 234 239 228
292 295 295 291 284 275 271 271 272 274 276 277 277 277 279 255 258 255 254 264 245 227 221 226 234 235 244 250 253 254 259 268 260 253 271 267 264 262 262 264 262 254 244 235 234
297 285 289 296 293 285 278 270 267 268 268 268 270 271 263 245 246 245 247 240 233 223 218 227 234 247 246 249 253 261 266 264 259 265 260 274 259 241 273 258 256 240 241 249 251
302 296 292 292 292 292 282 273 267 266 266 268 265 259 256 264 261 240 219 243 233 229 231 233 237 246 256 263 258 258 264 261 259 252 250 237 262 263 271 245 242 246 254 244 234
306 312 296 288 289 289 292 280 269 265 261 258 255 237 263 270 237 242 227 229 223 221 230 237 238 244 243 249 257 247 250 252 258 250 261 209 239 243 271 279 244 262 255 256 229
308 306 308 304 291 287 289 290 272 259 257 253 243 231 253 247 241 236 229 226 228 230 236 236 226 236 222 226 231 234 233 236 251 261 200 233 246 241 250 259 255 265 261 225 242
322 308 300 305 305 296 294 318 263 233 218 209 207 208 265 233 239 228 221 219 225 231 227 227 221 224 224 222 235 243 249 241 244 229 272 223 237 249 288 287 288 276 264 221 214
316 318 307 298 306 296 281 255 237 323 285 241 243 241 241 253 255 225 211 207 206 221 215 219 224 228 234 230 231 242 249 262 272 280 260 247 259 288 282 268 267 274 279 227 177
310 312 313 303 311 300 268 251 266 295 276 264 240 238 235 234 239 230 212 212 209 213 211 216 220 221 233 224 229 232 241 250 261 276 270 259 263 254 272 258 231 242 250 222 170
308 303 309 299 310 314 288 282 253 261 275 256 219 244 226 224 242 226 217 211 217 215 217 225 225 227 224 232 220 233 233 241 259 266 266 290 294 295 299 280 239 267 225 199 166
300 296 296 275 277 293 339 23 262 197 263 241 217 214 201 198 177 214 212 208 213 212 212 225 221 225 226 220 226 229 235 231 234 250 258 265 269 279 279 281 216 213 250 146 155
298 293 286 272 277 278 288 311 267 224 235 241 237 187 192 201 214 237 198 215 216 222 222 229 224 224 231 222 221 229 235 243 242 255 248 244 253 268 269 339 108 134 130 150 157
291 285 269 263 254 282 272 273 212 227 232 263 190 175 197 197 209 225 190 200 209 209 224 223 229 228 231 226 214 224 226 221 227 237 253 255 251 254 260 299 111 58 9 136 154
286 277 265 255 249 253 254 235 230 230 237 276 229 186 202 215 202 209 193 203 210 208 207 219 221 220 215 229 217 207 209 231 222 225 245 317 242 266 254 143 119 154 77 121 152
290 276 258 245 233 233 205 222 228 241 248 242 275 281 201 214 220 201 222 203 206 205 213 206 229 209 225 212 223 202 206 221 248 255 262 221 237 264 157 160 196 162 135 143 159
292 283 261 241 214 217 208 239 246 250 268 292 292 322 317 226 223 195 205 223 209 206 219 233 220 229 203 215 217 221 202 209 220 239 259 276 259 255 149 190 168 136 142 151 155
276 281 287 202 198 218 220 223 246 260 273 290 301 306 306 301 268 211 212 218 205 207 208 226 244 213 213 208 199 199 226 201 219 227 230 248 269 190 150 192 134 150 142 161 160
226 242 248 178 173 237 239 252 270 276 281 289 299 285 283 305 315 294 223 218 221 202 200 212 225 242 215 200 203 201 214 205 208 220 239 252 246 98 107 140 147 127 148 170 170
286 286 192 194 229 235 257 261 259 266 271 269 276 263 292 313 311 295 266 232 222 194 208 198 227 237 239 208 192 207 211 220 207 217 220 241 242 160 169 174 174 185 154 165 174
282 293 215 218 261 285 289 288 281 287 301 264 259 268 275 274 280 283 293 295 225 225 197 187 218 221 228 207 178 190 214 214 213 211 224 230 244 157 159 176 173 196 148 160 176
250 269 316 281 273 271 284 268 279 284 288 277 251 256 256 270 278 275 356 336 313 246 192 189 208 223 230 233 194 194 204 215 216 218 217 224 244 237 174 177 199 194 164 165 172
278 310 332 295 296 301 295 278 269 282 280 291 285 251 243 262 268 334 338 326 289 340 279 191 207 214 224 229 244 200 199 209 225 216 215 233 236 225 235 189 185 198 179 179 177
286 281 280 283 283 282 290 277 304 297 288 261 268 271 264 259 272 303 304 294 285 290 293 224 206 201 224 218 234 217 200 200 218 227 210 218 224 239 224 184 211 188 187 179 180
Wind_Speed_850mb
46 46 47 48 49 48 47 46 43 41 39 38 37 37 38 43 40 39 50 39 34 36 30 31 37 37 40 44 45 42 29 30 41 41 28 34 25 26 20 13 25 10 10 10 15
49 49 49 51 53 51 48 49 46 45 43 42 41 41 41 42 50 57 55 43 38 38 51 44 48 45 52 49 51 40 29 42 42 38 31 37 32 44 39 19 16 26 23 22 22
51 51 51 53 55 57 54 53 50 48 46 44 44 43 42 40 44 37 30 42 55 53 49 47 48 48 54 52 56 47 38 38 47 49 33 45 34 45 23 18 19 13 5 28 26
47 50 49 51 52 56 59 57 56 53 49 45 44 45 40 28 15 7 13 12 23 46 48 55 61 62 53 46 59 48 60 58 47 47 45 38 35 36 24 22 25 4 8 22 29
46 48 48 47 50 52 53 55 56 55 53 47 45 44 40 29 51 35 50 39 17 46 57 64 71 71 53 52 54 53 49 56 47 43 60 51 39 30 34 22 16 15 14 23 24
49 48 49 48 49 50 53 51 50 50 49 47 47 43 34 41 63 51 52 47 31 35 52 58 66 73 64 58 52 57 60 45 52 65 48 43 35 31 39 27 21 23 27 24 27
48 49 49 50 50 47 46 52 50 47 45 43 43 42 43 72 36 22 31 48 40 38 41 50 60 67 59 55 66 61 49 45 49 39 38 49 36 31 43 32 42 26 24 34 28
47 48 48 48 46 49 46 49 51 46 43 38 36 34 39 60 59 68 41 43 51 54 44 38 43 61 65 60 56 43 52 41 43 46 56 40 34 26 47 38 28 33 36 37 35
41 42 45 48 51 55 55 49 46 38 43 36 34 33 41 30 53 66 56 58 44 42 43 49 49 53 50 42 38 39 35 49 45 42 41 37 36 33 40 42 33 31 32 31 32
38 40 42 43 50 56 59 52 29 34 37 23 33 25 47 52 47 50 56 64 66 51 52 48 51 38 35 33 39 42 46 41 42 41 22 29 32 34 45 39 40 36 35 35 33
40 41 40 42 46 44 47 33 17 15 42 46 35 51 43 18 31 46 44 53 63 60 43 52 36 45 53 53 52 49 49 43 39 40 25 18 44 34 27 40 46 37 35 34 30
43 42 38 36 44 44 37 23 35 24 29 61 82 75 64 44 30 39 42 53 59 54 47 41 48 50 52 50 54 55 50 45 41 29 22 25 27 24 31 42 48 36 30 29 29
44 44 39 37 42 41 35 50 41 35 27 58 75 90 84 69 69 51 60 61 48 55 53 57 53 54 56 52 55 52 49 40 41 31 32 17 28 35 36 42 32 23 22 9 37
45 39 37 33 27 23 37 25 23 19 15 31 58 67 91 75 81 78 61 60 48 58 62 61 53 56 57 57 50 48 50 46 39 31 24 27 26 27 30 34 15 17 34 38 43
44 39 33 28 26 25 22 13 4 9 14 17 68 36 61 88 23 86 88 74 54 53 45 62 60 59 59 57 57 48 50 45 35 29 30 31 24 27 30 32 18 10 5 31 41
42 38 33 29 32 33 28 25 10 14 28 19 20 52 50 70 80 15 98 85 73 52 56 58 64 56 65 51 52 51 46 41 27 26 27 33 28 28 29 6 14 4 13 34 37
42 37 37 30 37 18 14 18 15 27 24 27 36 49 48 53 63 63 63 63 56 55 56 52 62 60 57 61 48 50 38 23 23 25 24 33 31 31 27 12 4 10 7 24 32
35 38 38 37 31 24 17 12 30 42 69 19 41 47 52 47 58 67 54 54 62 63 30 46 45 66 55 60 51 51 35 25 31 24 32 21 30 14 5 14 12 4 13 16 26
34 33 36 36 32 29 18 25 44 58 29 54 63 58 47 50 44 62 69 61 64 66 49 45 58 45 64 55 51 45 33 41 36 32 26 9 27 20 24 18 15 18 16 25 29
28 26 38 29 34 34 15 28 47 60 73 67 51 39 41 42 54 61 62 62 64 66 51 48 34 56 62 51 56 46 39 35 23 35 33 28 29 12 25 18 21 21 22 28 39
19 9 26 36 39 22 14 32 45 64 76 56 54 52 53 50 42 57 63 56 65 65 62 49 36 39 47 59 45 37 40 39 27 31 25 23 22 11 29 20 18 23 35 37 48
13 5 8 41 15 9 18 39 48 51 76 55 47 40 53 49 41 36 55 61 49 62 69 65 21 33 53 52 52 47 47 36 21 35 24 24 13 18 14 16 15 34 41 42 45
11 18 9 22 10 20 35 46 50 46 47 52 45 42 46 54 27 30 44 49 72 60 60 50 40 27 39 42 52 49 43 41 31 17 30 24 22 24 22 16 22 16 47 49 45
9 6 13 18 27 27 35 36 39 34 45 45 46 40 43 42 42 32 45 34 44 62 74 45 39 47 31 37 42 50 50 46 40 25 28 31 26 28 28 22 19 22 43 50 46
11 8 12 6 15 21 28 35 44 43 50 44 34 44 43 41 41 37 40 36 49 43 42 44 54 45 51 47 53 55 55 51 48 42 37 35 35 22 28 21 24 33 33 41 48
15 11 16 26 25 23 25 25 39 39 43 36 38 43 34 42 42 30 39 38 23 37 24 41 45 49 49 57 53 52 57 53 53 50 44 42 36 28 22 43 37 28 40 37 44
23 21 12 17 19 17 17 27 24 31 44 36 28 31 39 41 44 37 57 59 53 47 45 29 35 41 47 46 51 49 54 51 43 42 45 41 33 25 17 17 17 34 40 38 40
Wind_Direction_850mb
289 289 288 288 287 288 287 287 289 288 291 288 289 290 291 293 285 284 260 253 236 236 226 218 210 220 222 233 238 245 256 265 276 289 311 316 329 324 291 257 275 190 196 172 166
283 282 284 284 284 284 283 284 285 287 289 291 291 292 293 296 294 281 265 242 222 237 231 210 213 220 229 233 244 241 250 264 275 292 317 324 310 307 299 283 270 191 187 185 180
282 281 280 279 280 283 282 281 282 282 283 287 289 290 293 303 313 282 250 244 244 234 230 223 228 221 231 236 239 241 252 253 277 290 301 297 299 278 293 292 303 7 322 182 191
280 280 277 276 276 277 279 279 280 280 281 280 283 283 284 288 254 249 326 282 226 228 222 225 230 230 227 236 244 252 253 254 263 284 284 275 279 285 294 287 292 310 247 199 205
294 286 284 280 272 272 272 275 276 277 279 282 280 280 280 249 242 245 295 288 249 221 219 220 223 228 238 235 243 257 261 256 270 276 266 266 268 280 278 296 293 270 234 239 228
292 295 295 291 284 275 271 271 272 274 276 277 277 277 279 255 258 255 254 264 245 227 221 226 234 235 244 250 253 254 259 268 260 253 271 267 264 262 262 264 262 254 244 235 234
297 285 289 296 293 285 278 270 267 268 268 268 270 271 263 245 246 245 247 240 233 223 218 227 234 247 246 249 253 261 266 264 259 265 260 274 259 241 273 258 256 240 241 249 251
302 296 292 292 292 292 282 273 267 266 266 268 265 259 256 264 261 240 219 243 233 229 231 233 237 246 256 263 258 258 264 261 259 252 250 237 262 263 271 245 242 246 254 244 234
306 312 296 288 289 289 292 280 269 265 261 258 255 237 263 270 237 242 227 229 223 221 230 237 238 244 243 249 257 247 250 252 258 250 261 209 239 243 271 279 244 262 255 256 229
308 306 308 304 291 287 289 290 272 259 257 253 243 231 253 247 241 236 229 226 228 230 236 236 226 236 222 226 231 234 233 236 251 261 200 233 246 241 250 259 255 265 261 225 242
322 308 300 305 305 296 294 318 263 233 218 209 207 208 265 233 239 228 221 219 225 231 227 227 221 224 224 222 235 243 249 241 244 229 272 223 237 249 288 287 288 276 264 221 214
316 318 307 298 306 296 281 255 237 323 285 241 243 241 241 253 255 225 211 207 206 221 215 219 224 228 234 230 231 242 249 262 272 280 260 247 259 288 282 268 267 274 279 227 177
310 312 313 303 311 300 268 251 266 295 276 264 240 238 235 234 239 230 212 212 209 213 211 216 220 221 233 224 229 232 241 250 261 276 270 259 263 254 272 258 231 242 250 222 170
308 303 309 299 310 314 288 282 253 261 275 256 219 244 226 224 242 226 217 211 217 215 217 225 225 227 224 232 220 233 233 241 259 266 266 290 294 295 299 280 239 267 225 199 166
300 296 296 275 277 293 339 23 262 197 263 241 217 214 201 198 177 214 212 208 213 212 212 225 221 225 226 220 226 229 235 231 234 250 258 265 269 279 279 281 216 213 250 146 155
298 293 286 272 277 278 288 311 267 224 235 241 237 187 192 201 214 237 198 215 216 222 222 229 224 224 231 222 221 229 235 243 242 255 248 244 253 268 269 339 108 134 130 150 157
291 285 269 263 254 282 272 273 212 227 232 263 190 175 197 197 209 225 190 200 209 209 224 223 229 228 231 226 214 224 226 221 227 237 253 255 251 254 260 299 111 58 9 136 154
286 277 265 255 249 253 254 235 230 230 237 276 229 186 202 215 202 209 193 203 210 208 207 219 221 220 215 229 217 207 209 231 222 225 245 317 242 266 254 143 119 154 77 121 152
290 276 258 245 233 233 205 222 228 241 248 242 275 281 201 214 220 201 222 203 206 205 213 206 229 209 225 212 223 202 206 221 248 255 262 221 237 264 157 160 196 162 135 143 159
292 283 261 241 214 217 208 239 246 250 268 292 292 322 317 226 223 195 205 223 209 206 219 233 220 229 203 215 217 221 202 209 220 239 259 276 259 255 149 190 168 136 142 151 155
276 281 287 202 198 218 220 223 246 260 273 290 301 306 306 301 268 211 212 218 205 207 208 226 244 213 213 208 199 199 226 201 219 227 230 248 269 190 150 192 134 150 142 161 160
226 242 248 178 173 237 239 252 270 276 281 289 299 285 283 305 315 294 223 218 221 202 200 212 225 242 215 200 203 201 214 205 208 220 239 252 246 98 107 140 147 127 148 170 170
286 286 192 194 229 235 257 261 259 266 271 269 276 263 292 313 311 295 266 232 222 194 208 198 227 237 239 208 192 207 211 220 207 217 220 241 242 160 169 174 174 185 154 165 174
282 293 215 218 261 285 289 288 281 287 301 264 259 268 275 274 280 283 293 295 225 225 197 187 218 221 228 207 178 190 214 214 213 211 224 230 244 157 159 176 173 196 148 160 176
250 269 316 281 273 271 284 268 279 284 288 277 251 256 256 270 278 275 356 336 313 246 192 189 208 223 230 233 194 194 204 215 216 218 217 224 244 237 174 177 199 194 164 165 172
278 310 332 295 296 301 295 278 269 282 280 291 285 251 243 262 268 334 338 326 289 340 279 191 207 214 224 229 244 200 199 209 225 216 215 233 236 225 235 189 185 198 179 179 177
286 281 280 283 283 282 290 277 304 297 288 261 268 271 264 259 272 303 304 294 285 290 293 224 206 201 224 218 234 217 200 200 218 227 210 218 224 239 224 184 211 188 187 179 180